TimeCDT,TemperatureF,Dew PointF,Humidity,Sea Level PressureIn,VisibilityMPH,Wind Direction,Wind SpeedMPH,Gust SpeedMPH,PrecipitationIn,Events,Conditions,WindDirDegrees,DateUTC
12:02 AM,71.6,71.6,100,29.89,10.0,NNW,8.1,-,N/A,,Overcast,330,2012-09-02 05:02:00
12:43 AM,71.6,71.6,100,29.89,10.0,NNW,9.2,-,N/A,,Overcast,340,2012-09-02 05:43:00
12:55 AM,71.1,71.1,100,29.89,10.0,NNW,9.2,-,N/A,,Overcast,330,2012-09-02 05:55:00
1:15 AM,71.6,71.6,100,29.89,10.0,NNW,8.1,-,N/A,,Overcast,330,2012-09-02 06:15:00
1:30 AM,71.6,71.6,100,29.89,10.0,NNW,9.2,-,N/A,,Overcast,330,2012-09-02 06:30:00
1:55 AM,70.9,70.9,100,29.89,10.0,NNW,10.4,-,N/A,,Overcast,330,2012-09-02 06:55:00
2:04 AM,71.6,71.6,100,29.89,6.0,NNW,6.9,-,N/A,,Overcast,340,2012-09-02 07:04:00
2:29 AM,71.6,71.6,100,29.89,5.0,NW,5.8,-,N/A,,Overcast,320,2012-09-02 07:29:00
2:55 AM,70.3,70.3,100,29.88,10.0,NNW,6.9,-,N/A,,Overcast,330,2012-09-02 07:55:00
3:55 AM,70.0,69.6,99,29.88,10.0,NW,5.8,-,N/A,,Overcast,320,2012-09-02 08:55:00
4:55 AM,69.4,69.3,99,29.89,10.0,NNW,9.2,-,N/A,,Overcast,330,2012-09-02 09:55:00
5:55 AM,68.9,68.5,99,29.88,10.0,NNW,6.9,-,N/A,,Overcast,330,2012-09-02 10:55:00
6:12 AM,68.0,68.0,100,29.89,10.0,NW,5.8,-,N/A,,Overcast,320,2012-09-02 11:12:00
6:55 AM,68.5,67.8,98,29.91,10.0,NW,5.8,-,N/A,,Overcast,310,2012-09-02 11:55:00
7:28 AM,68.0,68.0,100,29.92,10.0,NW,4.6,-,N/A,,Scattered Clouds,320,2012-09-02 12:28:00
7:55 AM,68.4,67.5,97,29.92,10.0,NW,6.9,-,N/A,,Clear,320,2012-09-02 12:55:00
8:55 AM,70.2,66.4,88,29.92,10.0,NNW,11.5,-,N/A,,Clear,340,2012-09-02 13:55:00
9:34 AM,71.6,66.2,83,29.93,10.0,North,10.4,-,N/A,,Mostly Cloudy,360,2012-09-02 14:34:00
9:55 AM,72.1,66.2,82,29.94,10.0,NNW,6.9,-,N/A,,Overcast,340,2012-09-02 14:55:00
10:12 AM,73.4,66.2,78,29.94,10.0,WNW,6.9,-,N/A,,Scattered Clouds,300,2012-09-02 15:12:00
10:55 AM,75.9,67.6,75,29.94,10.0,Variable,6.9,-,N/A,,Partly Cloudy,0,2012-09-02 15:55:00
11:55 AM,78.8,68.9,72,29.94,10.0,NW,8.1,-,N/A,,Scattered Clouds,310,2012-09-02 16:55:00
11:57 AM,78.8,69.8,74,29.94,10.0,NNW,6.9,-,N/A,,Scattered Clouds,330,2012-09-02 16:57:00
12:55 PM,80.8,69.8,69,29.92,10.0,NW,9.2,-,N/A,,Partly Cloudy,320,2012-09-02 17:55:00
1:55 PM,84.7,70.5,62,29.91,10.0,NNW,10.4,17.3,N/A,,Scattered Clouds,340,2012-09-02 18:55:00
2:55 PM,85.5,70.9,62,29.88,10.0,NNW,8.1,-,N/A,,Clear,330,2012-09-02 19:55:00
3:55 PM,87.3,70.9,58,29.87,10.0,North,9.2,17.3,N/A,,Clear,350,2012-09-02 20:55:00
4:55 PM,86.9,70.5,58,29.87,10.0,NNW,9.2,-,N/A,,Partly Cloudy,330,2012-09-02 21:55:00
5:55 PM,86.9,70.9,59,29.87,10.0,North,8.1,-,N/A,,Clear,360,2012-09-02 22:55:00
6:55 PM,85.1,71.2,63,29.87,10.0,NE,4.6,-,N/A,,Clear,50,2012-09-02 23:55:00
7:55 PM,79.7,72.0,77,29.87,10.0,ENE,3.5,-,N/A,,Clear,70,2012-09-03 00:55:00
8:55 PM,77.5,71.6,82,29.89,10.0,East,3.5,-,N/A,,Clear,80,2012-09-03 01:55:00
9:55 PM,74.3,73.0,96,29.90,10.0,Calm,Calm,-,N/A,,Clear,0,2012-09-03 02:55:00
10:55 PM,72.9,72.9,100,29.90,10.0,Calm,Calm,-,N/A,,Clear,0,2012-09-03 03:55:00
11:55 PM,71.2,71.2,100,29.89,10.0,Calm,Calm,-,N/A,,Clear,0,2012-09-03 04:55:00